Location: Hurstbourne Priors
(51.2000°N, 1.3667°W)
Time: 21:08:26
(UTC+00:00)

Altair - Pass Details

Date: 18 April 2021
Orbit: 1501 x 1683 km, 47.2° (Epoch: 13 May)

Event Time Altitude Azimuth Distance (km) Brightness Sun altitude
Rises 07:50:22 0° 246° (WSW) 4,844 9.7 24.9°
Reaches altitude 10° 07:53:34 10° 244° (WSW) 3,836 9.2 25.4°
Maximum altitude 08:03:07 65° 166° (SSE) 1,704 8.4 26.9°
Drops below altitude 10° 08:12:20 10° 87° (E) 3,702 10.8 28.2°
Sets 08:15:21 0° 85° (E) 4,668 11.0 28.7°
